TimeEDT,TemperatureF,Dew PointF,Humidity,Sea Level PressureIn,VisibilityMPH,Wind Direction,Wind SpeedMPH,Gust SpeedMPH,PrecipitationIn,Events,Conditions,WindDirDegrees,DateUTC
12:53 AM,48.9,45.0,86,30.25,10.0,Calm,Calm,-,N/A,,Clear,0,2013-10-15 04:53:00
1:53 AM,46.9,44.1,90,30.23,10.0,Calm,Calm,-,N/A,,Clear,0,2013-10-15 05:53:00
2:23 AM,46.4,44.6,93,30.22,10.0,Calm,Calm,-,N/A,,Scattered Clouds,0,2013-10-15 06:23:00
2:32 AM,46.4,44.6,93,30.22,10.0,Calm,Calm,-,N/A,,Mostly Cloudy,0,2013-10-15 06:32:00
2:53 AM,48.9,46.0,90,30.20,10.0,Calm,Calm,-,N/A,,Overcast,0,2013-10-15 06:53:00
3:26 AM,48.2,44.6,87,30.19,10.0,Calm,Calm,-,N/A,,Scattered Clouds,0,2013-10-15 07:26:00
3:53 AM,48.0,45.0,89,30.18,10.0,Calm,Calm,-,N/A,,Partly Cloudy,0,2013-10-15 07:53:00
4:07 AM,48.2,44.6,87,30.18,10.0,Calm,Calm,-,N/A,,Mostly Cloudy,0,2013-10-15 08:07:00
4:53 AM,50.0,46.9,89,30.18,7.0,Calm,Calm,-,N/A,,Overcast,0,2013-10-15 08:53:00
5:53 AM,51.1,46.9,86,30.19,10.0,Calm,Calm,-,N/A,,Overcast,0,2013-10-15 09:53:00
6:29 AM,51.8,46.4,82,30.19,8.0,Calm,Calm,-,N/A,,Overcast,0,2013-10-15 10:29:00
6:53 AM,52.0,48.0,86,30.18,8.0,Calm,Calm,-,N/A,,Overcast,0,2013-10-15 10:53:00
7:53 AM,52.0,48.9,89,30.19,5.0,Calm,Calm,-,N/A,,Overcast,0,2013-10-15 11:53:00
8:12 AM,53.6,50.0,88,30.18,3.0,Calm,Calm,-,N/A,,Overcast,0,2013-10-15 12:12:00
8:20 AM,53.6,51.8,94,30.18,1.8,East,3.5,-,N/A,,Overcast,100,2013-10-15 12:20:00
8:23 AM,53.6,51.8,94,30.18,0.8,ESE,3.5,-,N/A,,Overcast,110,2013-10-15 12:23:00
8:45 AM,53.6,51.8,94,30.17,1.0,Calm,Calm,-,N/A,,Overcast,0,2013-10-15 12:45:00
8:53 AM,54.0,52.0,93,30.17,1.8,Calm,Calm,-,N/A,,Overcast,0,2013-10-15 12:53:00
8:59 AM,53.6,51.8,94,30.17,3.0,Calm,Calm,-,N/A,,Overcast,0,2013-10-15 12:59:00
9:53 AM,55.9,53.1,90,30.17,6.0,Calm,Calm,-,N/A,,Overcast,0,2013-10-15 13:53:00
10:51 AM,57.2,53.6,88,30.16,8.0,ESE,3.5,-,N/A,,Overcast,110,2013-10-15 14:51:00
10:53 AM,57.9,54.0,87,30.16,8.0,ESE,3.5,-,N/A,,Overcast,120,2013-10-15 14:53:00
11:18 AM,59.0,53.6,82,30.14,10.0,SSE,3.5,-,N/A,,Overcast,160,2013-10-15 15:18:00
11:53 AM,60.1,55.0,83,30.15,10.0,SSE,4.6,-,N/A,,Overcast,160,2013-10-15 15:53:00
12:53 PM,62.1,55.9,80,30.12,10.0,ESE,4.6,-,N/A,,Overcast,120,2013-10-15 16:53:00
1:53 PM,63.0,57.9,84,30.10,10.0,South,5.8,-,N/A,,Overcast,180,2013-10-15 17:53:00
2:31 PM,64.4,57.2,77,30.07,10.0,SE,5.8,-,N/A,,Overcast,130,2013-10-15 18:31:00
2:53 PM,66.0,59.0,78,30.06,10.0,SE,5.8,-,N/A,,Mostly Cloudy,140,2013-10-15 18:53:00
3:18 PM,66.2,59.0,78,30.06,10.0,Variable,3.5,-,N/A,,Mostly Cloudy,0,2013-10-15 19:18:00
3:53 PM,68.0,59.0,73,30.05,10.0,SE,4.6,-,N/A,,Mostly Cloudy,130,2013-10-15 19:53:00
4:07 PM,68.0,59.0,73,30.05,10.0,SE,4.6,-,N/A,,Scattered Clouds,130,2013-10-15 20:07:00
4:21 PM,69.8,59.0,68,30.04,10.0,ESE,4.6,-,N/A,,Mostly Cloudy,120,2013-10-15 20:21:00
4:51 PM,69.8,59.0,68,30.04,10.0,SE,5.8,-,N/A,,Partly Cloudy,130,2013-10-15 20:51:00
4:53 PM,69.1,59.0,70,30.04,10.0,SE,4.6,-,N/A,,Scattered Clouds,140,2013-10-15 20:53:00
5:53 PM,68.0,60.1,76,30.02,10.0,SE,3.5,-,N/A,,Clear,140,2013-10-15 21:53:00
6:53 PM,64.9,60.1,84,30.01,10.0,SSE,4.6,-,N/A,,Clear,150,2013-10-15 22:53:00
7:53 PM,64.0,60.1,87,30.00,10.0,Calm,Calm,-,N/A,,Clear,0,2013-10-15 23:53:00
8:53 PM,63.0,57.9,84,29.99,10.0,SE,4.6,-,N/A,,Clear,130,2013-10-16 00:53:00
9:53 PM,63.0,54.0,72,29.98,10.0,SE,6.9,-,N/A,,Clear,140,2013-10-16 01:53:00
10:53 PM,62.1,53.1,72,29.98,10.0,ESE,4.6,-,N/A,,Clear,120,2013-10-16 02:53:00
11:53 PM,62.1,52.0,70,29.98,10.0,Calm,Calm,-,N/A,,Clear,0,2013-10-16 03:53:00